| time (UTC) | temp F | wind direction | speed knots | gust knots | rain 1hr in | rain 24hr in | rain mn in | humidity % | barometer mb |
| 20260506051007 | 46 | 174 | 0.0 | 1.7 | 0.00 | 0.00 | 0.00 | 72 | 1012.2 |
| 20260506050507 | 45 | 135 | 0.0 | 1.7 | 0.00 | 0.00 | 0.00 | 72 | 1012.2 |
| 20260506045007 | 44 | 151 | 0.0 | 1.7 | 0.00 | 0.00 | 0.00 | 73 | 1012.0 |
| 20260506044528 | 44 | 180 | 0.0 | 1.7 | 0.00 | 0.00 | 0.00 | 80 | 1012.1 |
| 20260506044007 | 43 | 178 | 0.0 | 1.7 | 0.00 | 0.00 | 0.00 | 80 | 1012.0 |
| 20260506043507 | 43 | 99 | 0.0 | 1.7 | 0.00 | 0.00 | 0.00 | 80 | 1012.0 |
| 20260506043028 | 43 | 45 | 0.0 | 1.7 | 0.00 | 0.00 | 0.00 | 80 | 1011.9 |
| 20260506042507 | 43 | 0 | 0.0 | 0.0 | 0.00 | 0.00 | 0.00 | 79 | 1011.9 |
| 20260506042007 | 43 | 45 | 0.0 | 0.9 | 0.00 | 0.00 | 0.00 | 79 | 1011.9 |
| 20260506041507 | 43 | 45 | 0.0 | 1.7 | 0.00 | 0.00 | 0.00 | 80 | 1011.8 |
| 20260506041007 | 43 | 46 | 0.0 | 1.7 | 0.00 | 0.00 | 0.00 | 80 | 1011.9 |
| 20260506040528 | 43 | 203 | 0.0 | 1.7 | 0.00 | 0.00 | 0.00 | 80 | 1011.9 |
| 20260506040007 | 43 | 209 | 0.0 | 1.7 | 0.00 | 0.00 | 0.00 | 79 | 1011.9 |
| 20260506035528 | 43 | 90 | 0.0 | 1.7 | 0.00 | 0.00 | 0.00 | 79 | 1011.8 |
| 20260506035007 | 43 | 81 | 0.0 | 1.7 | 0.00 | 0.00 | 0.00 | 79 | 1011.7 |
| 20260506034507 | 43 | 82 | 0.0 | 1.7 | 0.00 | 0.00 | 0.00 | 78 | 1011.6 |
| 20260506034007 | 43 | 95 | 0.0 | 1.7 | 0.00 | 0.00 | 0.00 | 78 | 1011.7 |
| 20260506033506 | 43 | 139 | 0.0 | 1.7 | 0.00 | 0.00 | 0.00 | 78 | 1011.6 |
| 20260506033007 | 44 | 236 | 0.0 | 1.7 | 0.00 | 0.00 | 0.00 | 77 | 1011.6 |
| 20260506032507 | 44 | 299 | 0.0 | 1.7 | 0.00 | 0.00 | 0.00 | 72 | 1011.7 |
| 20260506032007 | 44 | 360 | 0.0 | 1.7 | 0.00 | 0.00 | 0.00 | 71 | 1011.7 |
| 20260506031507 | 44 | 180 | 0.0 | 1.7 | 0.00 | 0.00 | 0.00 | 71 | 1011.7 |
| 20260506031028 | 44 | 180 | 0.0 | 1.7 | 0.00 | 0.00 | 0.00 | 71 | 1011.6 |
| 20260506030508 | 44 | 180 | 0.0 | 1.7 | 0.00 | 0.00 | 0.00 | 71 | 1011.7 |
| 20260506030007 | 44 | 180 | 0.9 | 1.7 | 0.00 | 0.00 | 0.00 | 71 | 1011.6 |
| 20260506025506 | 45 | 169 | 0.9 | 1.7 | 0.00 | 0.00 | 0.00 | 71 | 1011.5 |
| 20260506025007 | 45 | 70 | 0.9 | 1.7 | 0.00 | 0.00 | 0.00 | 71 | 1011.6 |
| 20260506024507 | 45 | 95 | 0.9 | 1.7 | 0.00 | 0.00 | 0.00 | 71 | 1011.6 |
| 20260506024007 | 45 | 180 | 0.0 | 1.7 | 0.00 | 0.00 | 0.00 | 71 | 1011.5 |
| 20260506023506 | 45 | 180 | 0.0 | 0.9 | 0.00 | 0.00 | 0.00 | 70 | 1011.6 |
| 20260506023007 | 45 | 0 | 0.0 | 0.0 | 0.00 | 0.00 | 0.00 | 70 | 1011.6 |
| 20260506022506 | 45 | 180 | 0.0 | 1.7 | 0.00 | 0.00 | 0.00 | 70 | 1011.7 |
| 20260506022006 | 45 | 182 | 0.9 | 1.7 | 0.00 | 0.00 | 0.00 | 70 | 1011.6 |
| 20260506021506 | 46 | 199 | 0.9 | 1.7 | 0.00 | 0.00 | 0.00 | 70 | 1011.6 |
| 20260506021006 | 46 | 226 | 0.9 | 2.6 | 0.00 | 0.00 | 0.00 | 70 | 1011.6 |
| 20260506020506 | 46 | 217 | 0.9 | 2.6 | 0.00 | 0.00 | 0.00 | 70 | 1011.8 |
| 20260506020007 | 46 | 142 | 0.9 | 2.6 | 0.00 | 0.00 | 0.00 | 70 | 1011.6 |
| 20260506015506 | 46 | 106 | 0.9 | 2.6 | 0.00 | 0.00 | 0.00 | 70 | 1011.6 |
| 20260506015006 | 46 | 67 | 0.9 | 1.7 | 0.00 | 0.00 | 0.00 | 70 | 1011.5 |
| 20260506014506 | 46 | 45 | 0.0 | 1.7 | 0.00 | 0.00 | 0.00 | 70 | 1011.7 |
| 20260506014027 | 46 | 167 | 0.0 | 1.7 | 0.00 | 0.00 | 0.00 | 70 | 1011.7 |
| 20260506013527 | 46 | 176 | 0.9 | 1.7 | 0.00 | 0.00 | 0.00 | 70 | 1011.7 |
| 20260506013006 | 46 | 186 | 0.9 | 1.7 | 0.00 | 0.00 | 0.00 | 70 | 1011.9 |
| 20260506012506 | 46 | 185 | 0.0 | 1.7 | 0.00 | 0.00 | 0.00 | 69 | 1011.8 |
| 20260506012007 | 46 | 180 | 0.9 | 1.7 | 0.00 | 0.00 | 0.00 | 69 | 1011.6 |
| 20260506011507 | 46 | 180 | 0.0 | 1.7 | 0.00 | 0.00 | 0.00 | 69 | 1011.7 |
| 20260506011028 | 46 | 180 | 0.0 | 1.7 | 0.00 | 0.00 | 0.00 | 68 | 1011.7 |
| 20260506010527 | 46 | 200 | 0.9 | 2.6 | 0.00 | 0.00 | 0.00 | 68 | 1011.6 |
| 20260506010006 | 46 | 236 | 0.9 | 2.6 | 0.00 | 0.00 | 0.00 | 68 | 1011.6 |
| 20260506005507 | 46 | 198 | 0.9 | 2.6 | 0.00 | 0.00 | 0.00 | 68 | 1011.8 |
| 20260506005006 | 46 | 167 | 0.9 | 2.6 | 0.00 | 0.00 | 0.00 | 67 | 1011.6 |
| 20260506004506 | 46 | 108 | 0.9 | 3.5 | 0.00 | 0.00 | 0.00 | 67 | 1011.6 |
| 20260506004006 | 46 | 161 | 1.7 | 3.5 | 0.00 | 0.00 | 0.00 | 67 | 1011.7 |
| 20260506003506 | 46 | 151 | 0.9 | 3.5 | 0.00 | 0.00 | 0.00 | 67 | 1011.7 |
| 20260506003007 | 46 | 80 | 0.9 | 1.7 | 0.00 | 0.00 | 0.00 | 67 | 1011.8 |
| 20260506002506 | 46 | 69 | 0.0 | 1.7 | 0.00 | 0.00 | 0.00 | 67 | 1011.8 |
| 20260506002006 | 46 | 72 | 0.0 | 1.7 | 0.00 | 0.00 | 0.00 | 67 | 1011.8 |
| 20260506001506 | 46 | 105 | 0.0 | 1.7 | 0.00 | 0.00 | 0.00 | 67 | 1011.9 |
| 20260506001006 | 46 | 77 | 0.0 | 1.7 | 0.00 | 0.00 | 0.00 | 68 | 1011.9 |
| 20260506000506 | 46 | 35 | 0.0 | 1.7 | 0.00 | 0.00 | 0.00 | 68 | 1012.0 |
| 20260506000006 | 45 | 116 | 0.0 | 1.7 | 0.00 | 0.00 | 0.00 | 68 | 1012.1 |
| 20260505235506 | 45 | 165 | 0.0 | 1.7 | 0.00 | 0.00 | 0.00 | 68 | 1012.0 |
| 20260505235027 | 45 | 151 | 0.0 | 1.7 | 0.00 | 0.00 | 0.00 | 68 | 1012.1 |
| 20260505234506 | 45 | 135 | 0.0 | 0.9 | 0.00 | 0.00 | 0.00 | 67 | 1012.0 |
| 20260505234006 | 45 | 141 | 0.0 | 1.7 | 0.00 | 0.00 | 0.00 | 67 | 1012.2 |
| 20260505233506 | 46 | 172 | 0.0 | 1.7 | 0.00 | 0.00 | 0.00 | 67 | 1012.1 |
| 20260505233006 | 46 | 192 | 0.0 | 1.7 | 0.00 | 0.00 | 0.00 | 66 | 1012.1 |
| 20260505232507 | 46 | 225 | 0.0 | 1.7 | 0.00 | 0.00 | 0.00 | 65 | 1012.1 |
| 20260505232006 | 46 | 225 | 0.0 | 1.7 | 0.00 | 0.00 | 0.00 | 65 | 1012.2 |
| 20260505231506 | 46 | 67 | 0.0 | 1.7 | 0.00 | 0.00 | 0.00 | 64 | 1012.2 |
| 20260505231006 | 46 | 92 | 0.9 | 3.5 | 0.00 | 0.00 | 0.00 | 64 | 1012.2 |
| 20260505230506 | 47 | 104 | 0.9 | 3.5 | 0.00 | 0.00 | 0.00 | 64 | 1012.3 |
| 20260505230006 | 47 | 101 | 0.9 | 2.6 | 0.00 | 0.00 | 0.00 | 63 | 1012.3 |
| 20260505225506 | 47 | 360 | 0.0 | 1.7 | 0.00 | 0.00 | 0.00 | 63 | 1012.2 |
| 20260505225006 | 47 | 360 | 0.0 | 1.7 | 0.00 | 0.00 | 0.00 | 63 | 1012.2 |
| 20260505224527 | 47 | 0 | 0.0 | 0.0 | 0.00 | 0.00 | 0.00 | 63 | 1012.3 |
| 20260505224006 | 47 | 90 | 0.0 | 0.9 | 0.00 | 0.00 | 0.00 | 62 | 1012.3 |
| 20260505223506 | 48 | 63 | 0.0 | 1.7 | 0.00 | 0.00 | 0.00 | 62 | 1012.3 |
| 20260505223006 | 48 | 27 | 0.9 | 1.7 | 0.00 | 0.00 | 0.00 | 62 | 1012.2 |
| 20260505222506 | 48 | 25 | 0.9 | 1.7 | 0.00 | 0.00 | 0.00 | 62 | 1012.1 |
| 20260505222027 | 48 | 54 | 0.0 | 1.7 | 0.00 | 0.00 | 0.00 | 62 | 1012.3 |
| 20260505221506 | 48 | 45 | 0.0 | 1.7 | 0.00 | 0.00 | 0.00 | 61 | 1012.4 |
| 20260505221005 | 49 | 45 | 0.0 | 1.7 | 0.00 | 0.00 | 0.00 | 61 | 1012.3 |
| 20260505220527 | 49 | 45 | 0.0 | 1.7 | 0.00 | 0.00 | 0.00 | 61 | 1012.4 |
| 20260505220006 | 49 | 45 | 0.0 | 1.7 | 0.00 | 0.00 | 0.00 | 61 | 1012.3 |
| 20260505215506 | 49 | 45 | 0.0 | 1.7 | 0.00 | 0.00 | 0.00 | 61 | 1012.4 |
| 20260505215006 | 50 | 45 | 0.0 | 1.7 | 0.00 | 0.00 | 0.00 | 60 | 1012.3 |
| 20260505214506 | 50 | 45 | 0.0 | 1.7 | 0.00 | 0.00 | 0.00 | 60 | 1012.4 |
| 20260505214006 | 50 | 45 | 0.0 | 1.7 | 0.00 | 0.00 | 0.00 | 60 | 1012.5 |
| 20260505213506 | 50 | 33 | 0.9 | 1.7 | 0.00 | 0.00 | 0.00 | 60 | 1012.4 |
| 20260505213005 | 51 | 9 | 0.0 | 1.7 | 0.00 | 0.00 | 0.00 | 58 | 1012.5 |
| 20260505212506 | 51 | 307 | 0.0 | 1.7 | 0.00 | 0.00 | 0.00 | 57 | 1012.4 |
| 20260505212006 | 51 | 321 | 0.0 | 1.7 | 0.00 | 0.00 | 0.00 | 57 | 1012.4 |
| 20260505211505 | 51 | 355 | 0.0 | 1.7 | 0.00 | 0.00 | 0.00 | 56 | 1012.4 |
| 20260505211006 | 51 | 120 | 0.0 | 1.7 | 0.00 | 0.00 | 0.00 | 55 | 1012.3 |
| 20260505210506 | 52 | 72 | 0.9 | 3.5 | 0.00 | 0.00 | 0.00 | 55 | 1012.3 |
| 20260505210006 | 52 | 39 | 0.9 | 3.5 | 0.00 | 0.00 | 0.00 | 55 | 1012.2 |
| 20260505205506 | 53 | 19 | 0.0 | 2.6 | 0.00 | 0.00 | 0.00 | 55 | 1012.2 |
| 20260505205006 | 53 | 360 | 0.0 | 1.7 | 0.00 | 0.00 | 0.00 | 51 | 1012.3 |
| 20260505204526 | 53 | 360 | 0.0 | 1.7 | 0.00 | 0.00 | 0.00 | 51 | 1012.3 |
| 20260505204005 | 54 | 180 | 0.0 | 1.7 | 0.00 | 0.00 | 0.00 | 50 | 1012.3 |
| 20260505203506 | 54 | 136 | 0.0 | 2.6 | 0.00 | 0.00 | 0.00 | 50 | 1012.3 |
| 20260505203006 | 54 | 58 | 0.9 | 3.5 | 0.00 | 0.00 | 0.00 | 50 | 1012.2 |
| 20260505202506 | 54 | 45 | 0.9 | 3.5 | 0.00 | 0.00 | 0.00 | 49 | 1012.2 |
| 20260505202006 | 55 | 45 | 0.0 | 1.7 | 0.00 | 0.00 | 0.00 | 50 | 1012.2 |
| 20260505201505 | 55 | 45 | 0.0 | 1.7 | 0.00 | 0.00 | 0.00 | 49 | 1012.1 |
| 20260505201006 | 55 | 45 | 0.0 | 1.7 | 0.00 | 0.00 | 0.00 | 48 | 1012.1 |
| 20260505200506 | 55 | 45 | 0.0 | 1.7 | 0.00 | 0.00 | 0.00 | 48 | 1012.0 |
| 20260505200006 | 56 | 45 | 0.0 | 1.7 | 0.00 | 0.00 | 0.00 | 46 | 1012.0 |
| 20260505195527 | 56 | 45 | 0.0 | 1.7 | 0.00 | 0.00 | 0.00 | 45 | 1012.1 |
| 20260505195006 | 57 | 45 | 0.0 | 1.7 | 0.00 | 0.00 | 0.00 | 44 | 1012.0 |
| 20260505194505 | 57 | 45 | 0.0 | 1.7 | 0.00 | 0.00 | 0.00 | 43 | 1012.0 |
| 20260505194026 | 58 | 45 | 0.0 | 0.9 | 0.00 | 0.00 | 0.00 | 43 | 1011.9 |
| 20260505193506 | 58 | 45 | 0.0 | 0.9 | 0.00 | 0.00 | 0.00 | 42 | 1011.9 |
| 20260505193005 | 58 | 45 | 0.0 | 0.9 | 0.00 | 0.00 | 0.00 | 42 | 1011.9 |
| 20260505192527 | 59 | 45 | 0.0 | 1.7 | 0.00 | 0.00 | 0.00 | 41 | 1011.8 |
| 20260505192005 | 60 | 45 | 0.0 | 1.7 | 0.00 | 0.00 | 0.00 | 41 | 1011.7 |
| 20260505191526 | 60 | 45 | 0.0 | 1.7 | 0.00 | 0.00 | 0.00 | 40 | 1011.8 |
| 20260505191006 | 61 | 45 | 0.0 | 1.7 | 0.00 | 0.00 | 0.00 | 39 | 1011.8 |
| 20260505190505 | 62 | 0 | 0.0 | 0.0 | 0.00 | 0.00 | 0.00 | 37 | 1011.7 |
| 20260505190006 | 62 | 0 | 0.0 | 0.0 | 0.00 | 0.00 | 0.00 | 32 | 1011.7 |
| 20260505185505 | 62 | 0 | 0.0 | 0.0 | 0.00 | 0.00 | 0.00 | 32 | 1011.6 |
| 20260505185005 | 63 | 225 | 0.0 | 1.7 | 0.00 | 0.00 | 0.00 | 31 | 1011.6 |
| 20260505184505 | 64 | 222 | 0.0 | 1.7 | 0.00 | 0.00 | 0.00 | 30 | 1011.5 |
| 20260505184005 | 64 | 204 | 0.0 | 1.7 | 0.00 | 0.00 | 0.00 | 30 | 1011.6 |
| 20260505183526 | 65 | 195 | 0.0 | 1.7 | 0.00 | 0.00 | 0.00 | 30 | 1011.7 |
| 20260505183005 | 65 | 185 | 0.9 | 2.6 | 0.00 | 0.00 | 0.00 | 28 | 1011.5 |
| 20260505182505 | 65 | 180 | 1.7 | 2.6 | 0.00 | 0.00 | 0.00 | 27 | 1011.6 |
| 20260505182005 | 66 | 180 | 1.7 | 2.6 | 0.00 | 0.00 | 0.00 | 26 | 1011.6 |
| 20260505181505 | 66 | 184 | 1.7 | 3.5 | 0.00 | 0.00 | 0.00 | 25 | 1011.5 |
| 20260505181005 | 67 | 177 | 3.5 | 7.0 | 0.00 | 0.00 | 0.00 | 25 | 1011.5 |
| 20260505180506 | 67 | 180 | 4.3 | 7.0 | 0.00 | 0.00 | 0.00 | 25 | 1011.4 |
| 20260505180005 | 67 | 187 | 4.3 | 7.8 | 0.00 | 0.00 | 0.00 | 25 | 1011.5 |
| 20260505175527 | 67 | 184 | 5.2 | 9.6 | 0.00 | 0.00 | 0.00 | 25 | 1011.5 |
| 20260505175005 | 68 | 182 | 6.1 | 9.6 | 0.00 | 0.00 | 0.00 | 25 | 1011.5 |
| 20260505174505 | 68 | 178 | 7.0 | 10.4 | 0.00 | 0.00 | 0.00 | 26 | 1011.5 |
| 20260505174026 | 68 | 177 | 7.8 | 12.2 | 0.00 | 0.00 | 0.00 | 26 | 1011.5 |
| 20260505173505 | 69 | 177 | 7.8 | 12.2 | 0.00 | 0.00 | 0.00 | 26 | 1011.5 |
| 20260505173005 | 69 | 182 | 7.0 | 14.8 | 0.00 | 0.00 | 0.00 | 26 | 1011.4 |
| 20260505172505 | 69 | 182 | 7.0 | 14.8 | 0.00 | 0.00 | 0.00 | 26 | 1011.5 |
| 20260505172005 | 69 | 183 | 7.0 | 14.8 | 0.00 | 0.00 | 0.00 | 28 | 1011.5 |
| 20260505171505 | 70 | 188 | 7.0 | 12.2 | 0.00 | 0.00 | 0.00 | 27 | 1011.4 |
| 20260505171005 | 70 | 194 | 6.1 | 10.4 | 0.00 | 0.00 | 0.00 | 28 | 1011.4 |
| 20260505170505 | 70 | 195 | 6.1 | 9.6 | 0.00 | 0.00 | 0.00 | 27 | 1011.4 |
| 20260505170006 | 70 | 190 | 6.1 | 10.4 | 0.00 | 0.00 | 0.00 | 27 | 1011.4 |
| 20260505165505 | 71 | 172 | 7.8 | 13.0 | 0.00 | 0.00 | 0.00 | 26 | 1011.5 |
| 20260505165006 | 71 | 166 | 9.6 | 16.5 | 0.00 | 0.00 | 0.00 | 25 | 1011.4 |
| 20260505164505 | 71 | 175 | 9.6 | 16.5 | 0.00 | 0.00 | 0.00 | 26 | 1011.5 |
| 20260505164005 | 71 | 190 | 8.7 | 14.8 | 0.00 | 0.00 | 0.00 | 26 | 1011.4 |
| 20260505163505 | 71 | 188 | 8.7 | 14.8 | 0.00 | 0.00 | 0.00 | 26 | 1011.4 |
| 20260505163005 | 71 | 182 | 7.8 | 19.1 | 0.00 | 0.00 | 0.00 | 27 | 1011.5 |
| 20260505162505 | 71 | 196 | 7.8 | 19.1 | 0.00 | 0.00 | 0.00 | 25 | 1011.5 |
| 20260505162005 | 71 | 204 | 9.6 | 19.1 | 0.00 | 0.00 | 0.00 | 23 | 1011.5 |
| 20260505161505 | 71 | 205 | 8.7 | 14.8 | 0.00 | 0.00 | 0.00 | 22 | 1011.5 |
| 20260505161005 | 71 | 191 | 7.0 | 13.9 | 0.00 | 0.00 | 0.00 | 24 | 1011.5 |
| 20260505160526 | 72 | 180 | 7.0 | 11.3 | 0.00 | 0.00 | 0.00 | 23 | 1011.5 |
| 20260505153005 | 72 | 204 | 10.4 | 18.2 | 0.00 | 0.00 | 0.00 | 23 | 1011.7 |
| 20260505152505 | 72 | 198 | 8.7 | 18.2 | 0.00 | 0.00 | 0.00 | 23 | 1011.7 |
| 20260505152005 | 72 | 190 | 8.7 | 14.8 | 0.00 | 0.00 | 0.00 | 23 | 1011.8 |
| 20260505151504 | 72 | 185 | 8.7 | 14.8 | 0.00 | 0.00 | 0.00 | 23 | 1011.9 |
| 20260505151005 | 72 | 180 | 8.7 | 14.8 | 0.00 | 0.00 | 0.00 | 22 | 1011.8 |
| 20260505150525 | 72 | 183 | 9.6 | 15.6 | 0.00 | 0.00 | 0.00 | 22 | 1012.0 |
| 20260505140525 | 74 | 172 | 6.1 | 13.0 | 0.00 | 0.00 | 0.00 | 23 | 1012.2 |
| 20260505125004 | 73 | 189 | 9.6 | 18.2 | 0.00 | 0.00 | 0.00 | 29 | 1013.2 |
| 20260505124526 | 73 | 198 | 9.6 | 18.2 | 0.00 | 0.00 | 0.00 | 30 | 1013.2 |
| 20260505124004 | 72 | 187 | 9.6 | 13.0 | 0.00 | 0.00 | 0.00 | 29 | 1013.2 |
| 20260505123504 | 72 | 181 | 10.4 | 14.8 | 0.00 | 0.00 | 0.00 | 30 | 1013.1 |
| 20260505123004 | 72 | 182 | 11.3 | 18.2 | 0.00 | 0.00 | 0.00 | 26 | 1013.1 |
| 20260505122504 | 73 | 185 | 11.3 | 18.2 | 0.00 | 0.00 | 0.00 | 26 | 1013.3 |
| 20260505122004 | 73 | 182 | 10.4 | 20.0 | 0.00 | 0.00 | 0.00 | 28 | 1013.3 |
| 20260505121525 | 73 | 192 | 11.3 | 22.6 | 0.00 | 0.00 | 0.00 | 28 | 1013.3 |
| 20260505121025 | 73 | 193 | 11.3 | 22.6 | 0.00 | 0.00 | 0.00 | 28 | 1013.4 |
| 20260505120504 | 73 | 181 | 8.7 | 18.2 | 0.00 | 0.00 | 0.00 | 28 | 1013.4 |
| 20260505120005 | 73 | 172 | 8.7 | 14.8 | 0.00 | 0.00 | 0.00 | 26 | 1013.4 |
| 20260505115504 | 73 | 178 | 8.7 | 14.8 | 0.00 | 0.00 | 0.00 | 26 | 1013.3 |
| 20260505115004 | 73 | 180 | 10.4 | 19.1 | 0.00 | 0.00 | 0.00 | 28 | 1013.4 |
| 20260505114504 | 73 | 185 | 10.4 | 19.1 | 0.00 | 0.00 | 0.00 | 28 | 1013.4 |
| 20260505114004 | 73 | 190 | 7.8 | 19.1 | 0.00 | 0.00 | 0.00 | 28 | 1013.5 |
| 20260505113504 | 72 | 192 | 6.1 | 9.6 | 0.00 | 0.00 | 0.00 | 26 | 1013.5 |
| 20260505113025 | 72 | 203 | 6.1 | 9.6 | 0.00 | 0.00 | 0.00 | 29 | 1013.5 |
| 20260505112504 | 72 | 189 | 7.8 | 13.0 | 0.00 | 0.00 | 0.00 | 29 | 1013.7 |
| 20260505112025 | 72 | 182 | 7.8 | 14.8 | 0.00 | 0.00 | 0.00 | 27 | 1013.8 |
| 20260505111504 | 72 | 197 | 8.7 | 18.2 | 0.00 | 0.00 | 0.00 | 27 | 1014.0 |
| 20260505111004 | 73 | 199 | 8.7 | 18.2 | 0.00 | 0.00 | 0.00 | 26 | 1014.1 |
| 20260505110525 | 73 | 190 | 9.6 | 17.4 | 0.00 | 0.00 | 0.00 | 27 | 1013.9 |
| 20260505102004 | 72 | 191 | 7.8 | 13.9 | 0.00 | 0.00 | 0.00 | 26 | 1014.4 |
| 20260505101524 | 72 | 190 | 6.1 | 13.9 | 0.00 | 0.00 | 0.00 | 26 | 1014.2 |
| 20260505101004 | 72 | 166 | 6.1 | 13.0 | 0.00 | 0.00 | 0.00 | 26 | 1014.4 |
| 20260505100504 | 71 | 165 | 7.0 | 13.0 | 0.00 | 0.00 | 0.00 | 28 | 1014.5 |
| 20260505100004 | 71 | 163 | 7.0 | 13.0 | 0.00 | 0.00 | 0.00 | 28 | 1014.6 |
| 20260505095524 | 71 | 161 | 6.1 | 13.0 | 0.00 | 0.00 | 0.00 | 27 | 1014.5 |
| 20260505095003 | 71 | 168 | 7.0 | 13.0 | 0.00 | 0.00 | 0.00 | 28 | 1014.7 |
| 20260505094504 | 71 | 182 | 8.7 | 14.8 | 0.00 | 0.00 | 0.00 | 28 | 1014.9 |
| 20260505094004 | 71 | 190 | 9.6 | 14.8 | 0.00 | 0.00 | 0.00 | 31 | 1014.8 |
| 20260505093504 | 71 | 197 | 9.6 | 13.9 | 0.00 | 0.00 | 0.00 | 30 | 1014.7 |
| 20260505093004 | 70 | 187 | 10.4 | 16.5 | 0.00 | 0.00 | 0.00 | 31 | 1014.8 |
| 20260505092525 | 70 | 193 | 11.3 | 16.5 | 0.00 | 0.00 | 0.00 | 30 | 1014.8 |
| 20260505092004 | 70 | 202 | 10.4 | 15.6 | 0.00 | 0.00 | 0.00 | 31 | 1014.8 |
| 20260505091503 | 70 | 188 | 9.6 | 15.6 | 0.00 | 0.00 | 0.00 | 31 | 1014.8 |
| 20260505091004 | 70 | 195 | 10.4 | 17.4 | 0.00 | 0.00 | 0.00 | 31 | 1014.8 |
| 20260505090503 | 70 | 199 | 10.4 | 17.4 | 0.00 | 0.00 | 0.00 | 32 | 1014.7 |
| 20260505090004 | 69 | 191 | 9.6 | 17.4 | 0.00 | 0.00 | 0.00 | 33 | 1014.8 |
| 20260505085504 | 69 | 182 | 10.4 | 18.2 | 0.00 | 0.00 | 0.00 | 33 | 1014.8 |
| 20260505085004 | 69 | 184 | 9.6 | 18.2 | 0.00 | 0.00 | 0.00 | 34 | 1015.0 |
| 20260505084503 | 68 | 200 | 8.7 | 14.8 | 0.00 | 0.00 | 0.00 | 35 | 1014.9 |
| 20260505084003 | 67 | 197 | 8.7 | 13.0 | 0.00 | 0.00 | 0.00 | 35 | 1014.9 |
| 20260505083503 | 67 | 179 | 8.7 | 13.0 | 0.00 | 0.00 | 0.00 | 35 | 1014.9 |
| 20260505083004 | 66 | 169 | 6.1 | 11.3 | 0.00 | 0.00 | 0.00 | 36 | 1014.9 |
| 20260505082504 | 65 | 174 | 3.5 | 11.3 | 0.00 | 0.00 | 0.00 | 39 | 1014.9 |
| 20260505082004 | 64 | 209 | 2.6 | 5.2 | 0.00 | 0.00 | 0.00 | 40 | 1014.9 |
| 20260505081503 | 64 | 313 | 1.7 | 5.2 | 0.00 | 0.00 | 0.00 | 40 | 1014.9 |
| 20260505081003 | 63 | 1 | 1.7 | 5.2 | 0.00 | 0.00 | 0.00 | 41 | 1015.0 |
| 20260505080503 | 62 | 76 | 1.7 | 5.2 | 0.00 | 0.00 | 0.00 | 43 | 1015.1 |
| 20260505080003 | 61 | 70 | 2.6 | 5.2 | 0.00 | 0.00 | 0.00 | 48 | 1015.2 |
| 20260505075503 | 60 | 56 | 2.6 | 5.2 | 0.00 | 0.00 | 0.00 | 48 | 1015.2 |
| 20260505075003 | 58 | 234 | 1.7 | 3.5 | 0.00 | 0.00 | 0.00 | 51 | 1015.3 |
| 20260505074503 | 58 | 217 | 1.7 | 2.6 | 0.00 | 0.00 | 0.00 | 52 | 1015.4 |
| 20260505074003 | 57 | 175 | 0.9 | 2.6 | 0.00 | 0.00 | 0.00 | 53 | 1015.4 |
| 20260505073524 | 56 | 88 | 0.9 | 3.5 | 0.00 | 0.00 | 0.00 | 53 | 1015.4 |
| 20260505073004 | 55 | 81 | 0.9 | 3.5 | 0.00 | 0.00 | 0.00 | 53 | 1015.5 |
| 20260505072524 | 54 | 158 | 0.9 | 3.5 | 0.00 | 0.00 | 0.00 | 53 | 1015.5 |
| 20260505072003 | 54 | 126 | 0.9 | 3.5 | 0.00 | 0.00 | 0.00 | 54 | 1015.7 |
| 20260505071503 | 53 | 76 | 0.9 | 3.5 | 0.00 | 0.00 | 0.00 | 54 | 1015.8 |
| 20260505071003 | 52 | 51 | 0.9 | 3.5 | 0.00 | 0.00 | 0.00 | 60 | 1015.8 |
| 20260505070524 | 52 | 72 | 1.7 | 3.5 | 0.00 | 0.00 | 0.00 | 60 | 1015.9 |
| 20260505070003 | 51 | 45 | 1.7 | 3.5 | 0.00 | 0.00 | 0.00 | 60 | 1015.9 |
| 20260505065507 | 50 | 343 | 1.7 | 3.5 | 0.00 | 0.00 | 0.00 | 60 | 1016.0 |
| 20260505065007 | 50 | 89 | 1.7 | 3.5 | 0.00 | 0.00 | 0.00 | 61 | 1016.0 |
| 20260505064507 | 49 | 70 | 1.7 | 3.5 | 0.00 | 0.00 | 0.00 | 61 | 1016.1 |
| 20260505064007 | 48 | 11 | 0.9 | 2.6 | 0.00 | 0.00 | 0.00 | 61 | 1016.2 |
| 20260505063507 | 48 | 329 | 0.9 | 1.7 | 0.00 | 0.00 | 0.00 | 62 | 1016.2 |
| 20260505063007 | 47 | 235 | 0.9 | 1.7 | 0.00 | 0.00 | 0.00 | 62 | 1016.2 |
| 20260505062507 | 46 | 328 | 0.9 | 2.6 | 0.00 | 0.00 | 0.00 | 63 | 1016.3 |
| 20260505062007 | 46 | 20 | 0.9 | 2.6 | 0.00 | 0.00 | 0.00 | 63 | 1016.4 |
| 20260505061507 | 45 | 157 | 0.9 | 2.6 | 0.00 | 0.00 | 0.00 | 64 | 1016.5 |
| 20260505061007 | 45 | 191 | 0.9 | 2.6 | 0.00 | 0.00 | 0.00 | 65 | 1016.5 |
| 20260505060507 | 44 | 193 | 0.9 | 2.6 | 0.00 | 0.00 | 0.00 | 65 | 1016.5 |
| 20260505060007 | 44 | 139 | 0.9 | 1.7 | 0.00 | 0.00 | 0.00 | 70 | 1016.5 |
| 20260505055507 | 43 | 90 | 0.9 | 1.7 | 0.00 | 0.00 | 0.00 | 71 | 1016.5 |
| 20260505055007 | 43 | 122 | 0.9 | 1.7 | 0.00 | 0.00 | 0.00 | 71 | 1016.6 |
| 20260505054507 | 42 | 159 | 0.9 | 2.6 | 0.00 | 0.00 | 0.00 | 71 | 1016.7 |
| 20260505054007 | 42 | 158 | 0.9 | 2.6 | 0.00 | 0.00 | 0.00 | 71 | 1016.6 |
| 20260505053507 | 41 | 161 | 0.9 | 1.7 | 0.00 | 0.00 | 0.00 | 72 | 1016.6 |